Probability
0 0 0 0 0 0 0 0 0 0 0 0 0 0 0 0 0 0 0 0 0 0 0 0 0 0 1 2 3 4 7 7 6 4 3 2 1 1
0 0 0 0 0 0 0 0 0 0 0 0 0 0 0 0 0 0 0 0 0 0 0 0 0 0 0 1 1 2 3 3 3 2 3 2 1 1
0 0 0 0 0 0 0 0 0 0 0 0 0 0 0 0 0 0 0 0 0 0 0 0 0 0 0 0 0 0 0 0 0 1 1 1 0 0
0 0 0 0 0 0 0 0 0 0 0 0 0 0 0 0 0 0 0 0 0 0 0 0 0 0 0 0 0 0 0 0 0 0 0 0 0 0
0 0 0 0 0 0 0 0 0 0 0 0 0 0 0 0 0 0 0 0 0 0 0 0 0 0 0 0 0 0 0 0 0 0 0 0 0 0
0 0 0 0 0 0 0 0 0 0 0 0 0 0 0 0 0 0 0 0 0 0 0 0 0 0 0 0 0 0 0 0 0 0 0 0 0 0
0 0 0 0 0 0 0 0 0 0 0 0 0 0 0 0 0 0 0 0 0 0 0 0 0 1 2 2 1 0 0 0 0 0 0 0 0 0
0 0 0 0 0 0 0 0 0 0 0 0 0 0 0 0 0 0 0 0 0 0 0 0 1 3 4 4 2 0 0 0 0 0 0 0 0 0
1 2 1 1 0 0 0 0 0 0 0 0 0 0 0 0 0 0 0 0 0 0 1 1 2 4 4 3 2 0 0 0 0 0 0 0 0 0
2 3 3 2 1 0 0 0 1 1 0 0 0 0 0 0 0 0 0 0 0 0 0 0 1 2 2 1 1 0 0 0 0 0 0 0 0 0
2 3 3 2 1 0 0 1 2 2 1 0 0 0 0 0 0 0 0 0 0 0 0 0 0 0 0 1 1 1 0 0 0 0 0 0 0 0
2 2 2 1 1 0 1 2 3 2 1 0 0 0 0 0 0 0 0 0 0 0 0 0 0 0 0 1 3 2 1 0 0 0 0 0 0 0
2 3 2 1 0 0 1 2 2 1 0 0 0 0 0 0 0 0 0 0 0 0 0 1 1 0 0 1 3 3 1 1 0 0 0 0 0 0
2 2 2 1 0 0 0 1 1 0 0 0 0 0 0 0 1 1 1 1 1 0 0 0 1 1 1 1 2 2 2 2 1 0 0 0 0 0
1 1 1 0 0 0 0 0 0 0 0 0 0 0 0 1 3 3 3 2 2 1 0 0 1 2 2 1 2 2 2 2 1 1 1 2 1 0
0 0 0 0 0 0 0 0 0 0 0 0 0 0 1 1 3 3 3 3 2 1 0 0 0 1 1 1 2 2 2 1 1 2 2 3 2 1
0 0 0 0 0 0 0 0 0 0 0 0 0 0 0 1 1 1 2 2 2 1 0 0 0 0 0 1 1 2 2 2 2 2 2 2 2 1
0 0 0 0 0 0 0 0 0 1 1 1 0 0 0 0 0 0 1 1 1 0 0 0 0 0 0 0 0 1 2 3 2 1 1 1 1 0
0 0 0 0 0 0 0 0 0 1 2 2 1 0 0 0 0 0 0 0 0 0 0 0 0 0 0 0 0 0 1 2 2 1 1 0 0 0
1 1 0 1 1 0 0 0 0 2 3 3 2 1 0 0 0 0 0 0 0 0 0 0 0 0 0 0 0 0 0 1 1 0 0 0 0 0
2 1 1 1 1 1 1 1 1 1 2 3 3 2 1 0 0 0 0 0 0 0 0 0 0 0 0 0 0 0 0 0 0 0 0 0 0 0
1 1 0 1 1 1 1 2 1 1 1 2 2 2 1 0 0 0 0 0 0 0 0 0 1 1 1 0 0 0 0 0 0 0 0 0 0 0
0 0 0 0 0 0 1 1 1 0 0 0 1 1 0 0 0 0 0 0 0 0 0 0 1 2 1 0 0 0 0 0 0 0 0 0 0 0
Wind_Speed
4 3 4 4 4 5 5 6 8 9 8 5 4 4 4 4 2 6 7 2 5 8 10 11 12 12 13 13 15 16 17 18 19 19 20 20 21 22
3 4 5 5 4 5 5 6 6 8 9 7 6 7 6 8 5 7 8 6 9 10 10 10 11 12 12 13 14 15 16 17 18 19 19 19 19 20
4 4 5 6 6 6 5 6 6 7 9 9 8 7 7 9 9 8 9 8 8 11 10 10 10 11 12 13 13 14 15 17 18 18 19 19 18 19
5 5 6 5 5 7 6 7 7 7 9 11 9 9 9 9 9 9 10 8 9 7 10 11 12 12 12 13 13 14 14 15 16 17 18 19 19 20
6 6 6 6 7 6 7 8 7 7 7 9 10 8 8 8 9 9 11 8 10 8 10 13 13 13 13 13 13 14 14 15 15 16 16 17 18 18
6 7 7 7 7 8 7 8 8 8 8 9 9 9 8 8 8 9 9 7 8 8 8 7 10 13 14 14 14 15 15 15 15 16 16 16 16 17
7 8 8 7 6 7 8 8 8 8 8 9 9 9 8 7 8 8 9 8 8 8 8 8 8 9 11 15 16 16 15 15 16 16 16 17 17 17
8 8 8 9 10 12 13 12 11 11 11 10 10 10 10 10 9 9 10 10 9 7 7 9 8 9 9 10 12 15 16 15 16 16 17 17 17 17
9 8 8 7 6 9 10 14 15 17 16 13 13 13 12 11 10 12 10 11 11 9 8 10 9 10 9 9 10 13 14 15 15 16 16 17 17 17
10 10 10 10 9 8 10 11 11 11 12 13 13 13 12 11 10 11 12 12 12 11 10 11 10 10 9 9 10 14 14 15 15 15 16 16 16 17
10 10 10 11 7 6 10 12 13 12 12 14 14 13 13 12 11 10 11 11 11 10 8 10 10 10 9 10 9 14 16 16 16 15 15 16 16 15
9 10 11 12 8 8 11 12 13 12 12 10 10 13 15 15 16 14 12 12 11 10 8 8 10 9 9 9 9 8 11 14 16 16 15 15 14 11
9 9 7 11 12 12 11 12 13 12 12 12 12 11 11 10 11 12 12 11 12 11 9 7 9 9 9 9 7 7 7 7 9 11 14 15 15 14
11 10 8 4 9 11 11 13 12 10 11 11 11 11 10 10 9 10 11 12 12 14 13 11 10 10 10 10 10 8 7 8 8 8 8 11 14 16
11 11 10 7 8 11 16 15 12 11 11 11 11 10 10 9 9 8 10 11 13 14 13 14 13 11 11 11 11 10 8 8 8 8 8 8 8 9
11 11 13 15 14 13 11 11 11 11 10 10 10 10 9 9 9 9 9 9 10 10 12 13 13 13 12 13 11 11 10 8 7 8 8 8 8 8
8 9 10 10 10 9 9 9 8 9 9 10 10 9 9 9 9 9 9 9 10 10 9 8 10 11 12 11 11 11 10 10 9 9 8 9 9 9
8 11 12 11 11 10 9 9 8 9 9 9 9 9 9 9 9 8 8 9 10 10 9 8 7 7 9 10 12 13 11 10 9 9 9 9 10 9
9 12 12 11 10 10 9 9 9 8 7 8 9 9 8 9 9 8 8 9 10 10 9 8 8 8 10 11 10 12 12 10 9 8 9 9 9 8
11 11 11 11 10 9 9 9 8 8 8 8 9 9 9 9 9 9 9 10 9 9 9 8 9 9 10 10 9 7 11 11 9 9 8 7 7 5
10 10 10 10 9 9 8 8 9 9 9 8 8 9 9 9 9 9 9 9 10 9 9 9 9 9 8 7 9 9 7 10 9 8 7 6 7 7
10 9 9 9 9 8 8 9 9 9 9 8 8 8 8 8 9 10 9 8 8 9 10 9 8 8 8 9 10 9 8 6 7 8 7 6 6 6
10 9 9 9 8 7 8 9 10 9 8 8 8 8 8 8 8 9 9 9 9 9 9 9 8 7 8 9 9 8 9 8 6 6 6 6 8 8
Wind_Direction
287 272 282 296 287 293 292 292 296 298 297 295 284 294 293 298 316 295 293 249 240 243 241 238 235 232 232 231 228 223 221 221 223 224 224 224 223 223
293 307 298 294 303 289 287 287 285 288 292 298 299 297 316 306 287 293 286 266 243 237 236 237 235 230 227 227 229 225 220 220 221 222 222 222 221 221
284 280 281 297 295 297 288 283 281 282 285 290 293 295 292 288 294 291 282 273 258 217 223 231 233 231 228 225 225 223 220 219 221 223 222 222 221 221
285 286 283 281 281 280 289 287 285 287 283 289 294 292 288 285 281 282 279 273 273 223 211 223 229 231 228 225 224 225 223 222 221 222 223 222 222 222
280 280 280 282 281 286 286 285 285 279 278 282 285 290 285 283 287 280 276 271 271 251 217 218 223 227 229 228 226 225 225 225 224 224 224 224 224 224
274 273 272 274 276 283 278 274 276 282 277 274 280 284 283 282 278 278 278 266 265 270 263 248 228 222 226 227 226 225 224 224 224 223 224 225 226 226
271 267 266 267 280 277 285 292 288 282 283 282 283 285 287 294 290 293 288 285 272 265 264 258 243 236 225 222 224 224 223 223 225 226 226 226 225 226
274 274 269 242 235 231 244 259 272 277 283 289 287 289 291 291 293 291 288 284 280 271 270 269 261 253 246 240 219 211 216 221 225 227 227 227 227 227
274 273 273 275 253 259 238 228 240 241 246 265 279 283 288 290 293 289 284 285 285 290 285 275 269 262 255 247 207 202 210 218 224 228 229 227 227 228
267 266 268 274 268 267 272 268 265 254 240 239 256 266 273 283 284 280 282 278 271 263 259 265 266 263 261 254 208 204 213 219 223 228 230 229 228 227
264 263 262 266 252 227 258 267 270 271 256 236 243 256 269 272 271 274 271 270 271 269 253 256 264 265 260 255 234 205 212 218 222 226 228 229 228 227
265 259 242 240 249 221 250 262 268 274 282 278 247 244 250 249 235 242 258 264 269 272 265 255 261 265 265 254 246 228 217 218 220 223 225 225 220 223
277 275 270 199 219 227 239 257 265 278 282 277 272 265 257 253 245 236 240 251 261 264 267 264 264 263 261 269 263 247 243 240 223 223 221 220 214 213
274 278 285 199 218 231 236 248 255 263 265 268 269 269 268 266 261 256 250 249 253 262 270 272 268 265 266 264 265 260 247 246 245 242 233 208 209 215
267 279 289 271 251 245 239 239 242 246 255 261 266 269 271 273 272 266 258 253 254 254 255 252 253 256 257 261 265 265 263 257 249 245 239 229 219 211
253 262 247 243 242 259 263 234 234 246 255 263 268 272 274 272 265 262 259 257 255 255 247 244 245 249 253 254 258 261 258 257 252 246 243 240 235 230
307 275 269 265 256 251 253 257 255 249 245 252 260 265 268 266 263 259 257 259 260 262 261 247 237 236 244 253 257 256 256 254 251 248 243 245 240 233
276 267 269 269 269 270 270 267 259 255 257 258 260 262 265 266 266 263 257 256 258 260 260 259 250 243 242 241 237 252 253 252 251 245 242 244 246 239
246 261 267 270 272 272 269 269 270 270 267 263 262 262 262 264 265 263 259 257 257 259 259 257 250 246 248 252 238 220 241 250 248 245 242 241 246 246
247 261 268 271 273 273 272 271 272 273 265 260 260 261 261 259 259 260 260 259 259 260 260 254 249 245 246 257 265 248 221 238 243 243 244 246 248 248
270 271 274 277 277 275 273 272 270 269 267 263 262 261 260 259 259 258 259 258 259 260 258 256 253 250 255 257 257 255 243 221 234 242 243 243 242 236
281 281 278 276 275 274 273 270 269 267 264 260 261 261 260 260 261 261 260 257 255 257 262 263 258 248 242 243 250 255 256 243 219 221 238 247 243 237
281 281 282 280 275 269 268 268 268 266 264 262 262 261 260 258 259 260 260 258 259 261 265 265 259 251 247 246 249 249 250 247 236 223 226 226 231 241